{"data":{"norad_id":53620,"intl_designator":"2022-104AJ","name":"STARLINK-4615","alt_names":[],"object_type":"PAYLOAD","status":"ACTIVE","operator":null,"country":"US","launch_date":"2022-08-28","launch_site_code":"AFETR","launch_vehicle":null,"mission":null,"orbit_class":"UNKNOWN","rcs_meters":null,"size_class":null,"mass_kg":null,"dimensions":null,"purposes":["comms"],"wikipedia_slug":null,"has_3d_model":false,"image_url":null,"decayed_at":null,"tle_current":{"epoch":"2026-05-24T18:36:24.753600Z","epoch_age_seconds":90539,"freshness":"FRESH","line1":"1 53620U 22104AJ  26144.77528650  .00000145  00000+0  27173-4 0  9995","line2":"2 53620  53.2150 252.3954 0001229  90.1027 270.0106 15.08838410207235","mean_motion":15.0883841,"eccentricity":0.0001229,"inclination_deg":53.215,"raan_deg":252.3954,"arg_perigee_deg":90.1027,"mean_anomaly_deg":270.0106,"bstar":2.7173e-5,"rev_number":20723,"period_min":95.437655248981,"perigee_km":538.89804086519,"apogee_km":540.59845705938,"semimajor_km":6917.8852489623,"source":"CELESTRAK","updated_at":"2026-05-25T13:38:17.479061Z"}}}